Location: Garden Village
(33.9362°S, 18.4875°E)
Time: 03:22:35
(UTC+00:00)

Daily predictions for brighter satellites

Satellite Brightness Start Highest point End
(mag) Time Altitude Azimuth Time Altitude Azimuth Time Altitude Azimuth
Cosmos 2082 Rocket 4.4 00:05:23 10° S 00:09:35 21° ESE 00:12:24 15° E
IDEFIX/ARIANE 42P 4.1 00:24:52 33° SE 00:24:52 33° SE 00:28:56 10° S
Cosmos 1943 Rocket 4.4 00:24:54 16° E 00:25:05 16° E 00:28:23 10° ESE
USA 215 3.6 00:20:52 10° SE 00:26:32 57° S 00:26:32 57° S
Cosmos 2278 Rocket 3.5 00:34:10 33° S 00:34:10 33° S 00:37:33 10° S
ATLAS 5 CENTAUR R/B 3.6 00:34:57 40° ENE 00:35:02 40° ENE 00:41:30 10° SE
ATLAS 3B R/B 4.0 00:30:58 10° SW 00:34:17 30° SW 00:34:17 30° SW
Tsikada Rocket 4.3 00:35:56 10° S 00:41:31 64° SE 00:41:31 64° SE
SL-4 R/B 4.0 00:47:10 33° SE 00:47:10 33° SE 00:49:54 10° SE
SL-16 R/B 3.4 00:43:51 10° SSE 00:49:40 40° E 00:50:37 38° ENE
Cosmos 2233 Rocket 4.1 00:51:43 74° SSE 00:51:43 74° SSE 00:57:30 10° S
Cosmos 2297 3.8 01:06:31 74° ESE 01:06:31 74° ESE 01:11:57 10° SSE
ATLAS CENTAUR R/B 3.5 01:04:30 10° S 01:08:44 30° SE 01:12:47 10° ENE
ARIANE 5 R/B 3.5 01:13:39 37° SSW 01:13:39 37° SSW 01:16:53 10° SSW
CZ-2C R/B 4.4 01:08:34 10° ENE 01:12:16 25° ESE 01:16:01 10° SSE
ADEOS II 4.4 01:25:58 11° SW 01:25:58 11° SW 01:26:14 10° SW
In-Cosmos 22 4.1 01:24:50 10° S 01:30:16 80° E 01:31:21 57° NNE
Cosmos 1833 Rocket 4.2 01:25:50 10° SW 01:28:01 22° SW 01:28:01 22° SW
Delta 2 Rocket 3.9 01:32:51 55° E 01:32:51 55° E 01:36:07 10° ESE
Lacrosse 5 2.8 01:35:32 37° SW 01:35:35 37° SW 01:40:22 10° SSE
Okean 1 Rocket 4.1 01:34:20 33° NE 01:35:38 42° E 01:39:53 10° SSE
COSMOS 2441 4.2 01:35:45 82° WSW 01:35:45 82° WSW 01:40:32 10° SSW
Cosmos 1733 4.5 01:35:46 34° ENE 01:36:22 37° E 01:40:01 10° SSE
Cosmos 2369 Rocket 3.1 01:34:10 29° NNE 01:36:29 44° ENE 01:41:49 10° SE
Okean 2 Rocket 3.9 01:38:22 42° SW 01:38:22 42° SW 01:41:47 10° S
Cosmos 1674 3.4 01:39:24 10° S 01:43:13 51° E 01:44:01 43° ENE
Cosmos 1536 Rocket 3.6 01:42:30 10° S 01:46:58 76° E 01:48:09 48° NNE
Cosmos 2082 Rocket 2.3 01:48:26 10° SSW 01:53:55 49° WNW 01:54:06 48° WNW
Meteor 1-15 Rocket 4.1 01:54:07 45° NNW 01:55:51 73° W 02:01:30 10° S
Intelsat 5-1 Rocket 3.9 01:57:56 13° NE 01:57:56 13° NE 01:58:54 10° NE
Cosmos 2056 Rocket 4.2 01:56:08 22° N 01:59:27 54° ENE 02:04:45 10° SSE
IDEFIX/ARIANE 42P 4.1 02:05:40 20° WSW 02:05:40 20° WSW 02:08:00 10° SW
Yuri Rocket 4.3 02:02:40 35° NNW 02:04:14 41° N 02:09:02 10° ENE
Cosmos 1340 Rocket 2.6 02:04:54 64° NW 02:05:18 71° W 02:09:16 10° S
Cosmos 2251 Rocket 3.5 02:01:22 10° SSW 02:06:43 64° WNW 02:12:02 10° N
Cosmos 1943 Rocket 2.3 02:06:26 39° WNW 02:08:14 56° WSW 02:13:50 10° SSE
SL-24 R/B - RUBIN 2 4.1 02:08:01 27° N 02:10:10 53° ENE 02:14:20 10° SE
SL-08 R/B 4.1 02:14:08 10° SSE 02:18:41 48° E 02:23:08 10° N
ALOS 3.3 02:14:11 10° NNE 02:18:41 48° ESE 02:23:13 10° S
ATLAS 5 CENTAUR R/B 3.4 02:16:30 26° WNW 02:19:50 41° SW 02:26:16 10° SSE
Hubble Space Telescope 1.6 02:20:39 32° NNW 02:21:01 33° N 02:24:46 10° NE
Meteor 2-5 Rocket 3.8 02:16:05 10° S 02:21:41 79° E 02:27:15 10° NNE
Cosmos 1455 Rocket 4.4 02:19:21 10° NNE 02:23:33 41° E 02:27:48 10° SSE
Cosmos 1624 Rocket 3.9 02:20:34 22° NNW 02:24:06 85° WSW 02:29:25 10° SSE
SL-4 R/B 4.4 02:22:44 12° WSW 02:25:23 18° SSW 02:28:42 10° SSE
SWIFT 4.4 02:29:02 13° N 02:29:04 13° N 02:30:57 10° NNE
Cosmos 2034 Rocket 4.1 02:24:27 17° NNW 02:29:15 59° W 02:35:36 10° S
Cosmos 1470 3.4 02:26:12 10° N 02:30:08 58° E 02:34:06 10° SSE
Meteor 1-22 Rocket 4.0 02:26:07 15° NNW 02:30:30 74° W 02:36:02 10° S
deb Chang Zheng 4 4.1 02:26:58 10° NNE 02:31:15 63° ESE 02:35:37 10° S
OAO 3 Rocket 3.2 02:29:27 24° W 02:32:16 80° S 02:37:08 10° E
Cosmos 1656 Rocket 3.8 02:27:31 12° NNW 02:32:36 75° ENE 02:38:08 10° SSE
SL-16 R/B 3.6 02:27:51 10° S 02:32:59 28° WSW 02:35:43 20° WNW
ATLAS CENTAUR R/B 1.9 02:32:10 27° NNW 02:33:29 58° ENE 02:38:35 10° SE
Cosmos 1092 Rocket 4.4 02:32:07 10° S 02:38:19 68° E 02:44:26 10° NNE
USA 267 3.2 02:32:17 10° NE 02:38:52 83° NW 02:45:30 10° SW
Cosmos 1766 4.4 02:40:55 23° W 02:41:47 25° WSW 02:45:04 10° SSW
SL-8 R/B 4.1 02:38:05 10° WSW 02:42:36 41° NW 02:47:05 10° NNE
Nadezhda 4 Rocket 4.0 02:36:26 10° SSW 02:42:37 65° W 02:48:40 10° N
FALCON 9 DEB 4.2 02:40:51 16° N 02:42:58 36° NE 02:45:58 10° ESE
Cosmos 1484 Rocket 2.7 02:39:39 10° NNE 02:43:23 87° ESE 02:47:10 10° S
FALCON 9 DEB 3.8 02:44:34 17° NNW 02:46:44 44° NE 02:49:47 10° ESE
SL-19 R/B 4.3 02:41:25 10° S 02:46:59 66° WSW 02:52:37 10° NNW
ATLAS CENTAUR R/B 2.6 02:43:40 10° SW 02:47:30 25° WNW 02:51:11 10° NNW
Atlas Centaur 2 3.6 02:47:10 10° N 02:48:56 12° NNE 02:50:37 10° NE
Cosmos 407 Rocket 3.4 02:44:12 10° SSW 02:49:27 82° WNW 02:54:36 10° NNE
CZ-2C R/B 3.2 02:47:32 15° NW 02:50:23 26° W 02:54:14 10° SW
Cosmos 1140 Rocket 3.6 02:47:03 10° SSW 02:52:21 83° ESE 02:57:32 10° NNE
GP-B 3.1 02:48:00 10° S 02:52:29 64° W 02:56:53 10° NNW
Milstar 3 Cent rocket 4.1 02:48:57 16° WNW 02:53:46 30° NNW 03:04:33 10° NE
Meteor 1-28 Rocket 4.1 02:53:55 10° S 02:57:16 31° WSW 02:59:58 14° NW
BREEZE-M DEB (TANK) 3.3 02:57:46 18° WNW 02:58:43 23° NW 03:01:51 10° NNE
FALCON 9 DEB 3.3 02:56:34 13° NNW 02:59:15 59° NE 03:02:26 10° SE
Cosmos 371 Rocket 4.1 02:59:18 13° NW 03:03:14 35° WSW 03:07:44 10° S
Meteor 1-31 Rocket 2.8 03:04:26 10° N 03:08:16 59° W 03:12:09 10° SSW
H-2A R/B 4.0 03:04:36 10° SSE 03:08:44 34° E 03:12:51 10° NNE
Cosmos 1818 4.4 03:04:22 12° WNW 03:08:49 34° SW 03:13:42 10° S
BREEZE-M DEB (TANK) 4.2 02:50:46 10° SW 03:08:58 60° NW 03:13:30 10° NNE
Cosmos 1420 Rocket 4.1 03:04:39 10° NNW 03:09:47 58° WSW 03:15:03 10° S
MERIDIAN 1 2.4 03:05:28 10° NNW 03:10:22 85° ENE 03:11:58 10° SE
FALCON 9 DEB 2.9 03:07:25 11° NW 03:10:26 89° SW 03:13:39 10° SE
FENGYUN 3A 4.0 03:05:43 10° N 03:10:53 45° W 03:16:07 10° SSW
Cosmos 1726 2.0 03:07:57 10° N 03:11:36 75° W 03:15:19 10° S
CZ-4B R/B 3.3 03:08:13 10° NNE 03:12:45 83° ESE 03:17:19 10° S
Meteor 2-10 4.3 03:08:05 10° NNW 03:13:46 76° W 03:19:35 10° S
Delta 2 Rocket 3.5 03:10:08 10° W 03:14:25 67° S 03:18:11 10° E
Cosmos 1954 Rocket 4.2 03:11:45 10° SSW 03:17:07 81° ESE 03:22:21 10° NNE
SL-14 R/B 4.4 03:15:26 10° SW 03:18:39 25° W 03:21:52 10° NW
EXPRESS MD2 3.4 03:15:38 10° WSW 03:19:17 33° NW 03:21:38 10° NNE
Cosmos 1626 3.6 03:16:50 10° SW 03:19:29 18° W 03:22:06 10° NW
Cosmos 2369 Rocket 3.5 03:16:20 10° WNW 03:20:39 22° WSW 03:24:59 10° S
Cosmos 1758 3.9 03:17:55 10° NNW 03:21:39 38° W 03:25:25 10° S
Cosmos 1544 Rocket 3.7 03:17:35 10° NNW 03:21:59 60° W 03:26:24 10° S
Landsat 5 4.2 03:20:12 10° SSE 03:24:40 63° E 03:28:55 10° N
USA 229 DEB 3.8 03:18:02 10° SSW 03:24:46 79° ESE 03:31:08 10° NNE
USA 229 3.8 03:18:07 10° SSW 03:24:51 79° ESE 03:31:15 10° NE
Gbstr 26 Del rocket 4.2 03:21:47 10° SW 03:27:08 54° SE 03:31:27 10° ENE
CZ-3 Stage 3 4.2 03:13:00 10° WNW 03:51:34 76° N 03:57:44 10° E
